EDT,Max TemperatureF,Mean TemperatureF,Min TemperatureF,Max Dew PointF,MeanDew PointF,Min DewpointF,Max Humidity, Mean Humidity, Min Humidity, Max Sea Level PressureIn, Mean Sea Level PressureIn, Min Sea Level PressureIn, Max VisibilityMiles, Mean VisibilityMiles, Min VisibilityMiles, Max Wind SpeedMPH, Mean Wind SpeedMPH, Max Gust SpeedMPH,PrecipitationIn, CloudCover, Events, WindDirDegrees
2013-3-1,24,20,15,14,11,7,80,68,54,30.26,30.22,30.15,10,10,10,20,14,26,0.00,3,Snow,353
2013-3-2,23,16,5,14,10,1,86,75,63,30.22,30.18,30.12,10,10,10,17,11,24,0.00,3,Snow,342
2013-3-3,26,13,0,12,8,-4,85,73,51,30.11,30.09,30.05,10,10,10,15,7,20,0.00,4,Snow,345
2013-3-4,30,14,-2,16,5,-8,93,66,25,30.17,30.14,30.10,10,10,10,12,4,10,0.00,1,Snow,4
2013-3-5,30,18,6,21,13,1,86,72,55,30.16,30.10,30.03,10,10,10,14,6,17,0.00,2,,23
2013-3-6,32,28,23,28,23,18,93,82,74,30.29,30.21,30.10,10,7,1,12,7,17,0.00,8,Snow,347
2013-3-7,28,24,21,21,18,16,86,76,59,30.44,30.36,30.29,10,10,7,12,5,,0.00,8,Snow,311
2013-3-8,32,19,6,28,20,3,93,83,69,30.49,30.42,30.31,10,10,2,13,4,17,0.00,5,,195
2013-3-9,37,34,30,32,29,27,93,83,65,30.31,30.14,29.90,10,9,4,16,8,21,0.00,4,Rain-Snow,156
2013-3-10,37,35,33,36,32,30,93,90,87,29.92,29.85,29.78,10,5,0,14,8,20,0.00,8,Rain-Snow,10
2013-3-11,37,34,28,36,32,25,93,91,86,29.82,29.55,29.42,10,4,0,21,10,26,0.00,8,Fog-Rain-Snow,45
2013-3-12,28,24,19,25,18,12,93,78,59,29.84,29.71,29.50,10,8,1,17,12,26,0.00,8,Snow,294
2013-3-13,28,22,17,18,14,9,93,69,43,30.19,30.04,29.84,10,8,2,25,11,33,0.00,5,Snow,318
2013-3-14,32,21,10,21,15,7,92,71,59,30.22,30.12,29.92,10,10,7,15,7,22,0.00,2,Snow,240
2013-3-15,32,24,17,27,16,7,80,67,55,29.99,29.92,29.85,10,10,4,18,10,24,0.00,8,Snow,326
2013-3-16,24,18,12,18,10,3,86,70,46,30.05,29.97,29.93,10,8,1,16,5,20,0.00,7,Snow,333
2013-3-17,19,10,1,14,7,-2,86,72,54,30.32,30.23,30.06,10,9,2,16,7,24,0.00,4,Snow,45
2013-3-18,33,27,21,28,20,12,93,75,56,30.16,29.83,29.45,10,8,0,23,15,31,0.00,3,Snow,116
2013-3-19,30,26,21,28,20,12,93,78,59,29.79,29.54,29.39,10,6,1,22,11,29,0.00,8,Snow,265
2013-3-20,24,18,12,19,13,7,86,75,58,29.87,29.82,29.78,10,7,1,22,11,29,0.00,7,Snow,280
2013-3-21,26,24,21,21,18,16,86,76,64,29.95,29.89,29.83,10,8,2,21,11,26,0.00,8,Snow,326
2013-3-22,32,24,17,23,19,12,86,76,64,30.06,29.97,29.92,10,10,10,14,9,21,0.00,7,Snow,315
2013-3-23,35,26,17,27,21,16,93,76,56,30.13,30.09,30.05,10,10,7,16,6,21,0.00,6,,312
2013-3-24,33,28,24,21,20,16,80,68,48,30.11,30.00,29.89,10,10,10,21,8,25,0.00,4,,1
2013-3-25,37,30,23,27,23,18,86,72,52,30.03,29.93,29.89,10,10,10,21,11,26,0.00,7,Snow,353
2013-3-26,39,34,30,28,25,19,87,70,45,30.16,30.09,30.03,10,10,10,18,10,30,0.00,6,Snow,329
2013-3-27,41,34,26,28,25,19,93,72,56,30.22,30.17,30.13,10,10,10,22,11,30,0.00,0,,319
2013-3-28,42,34,26,27,18,9,75,52,27,30.28,30.24,30.21,10,10,10,14,9,20,0.00,0,,326
2013-3-29,44,32,21,27,19,12,80,58,27,30.28,30.24,30.19,10,10,10,13,5,17,0.00,0,,272
2013-3-30,37,34,30,34,29,23,93,82,65,30.19,30.00,29.75,10,7,0,17,6,28,0.00,5,Rain-Snow,203
2013-3-31,42,33,24,36,28,18,93,81,45,29.76,29.63,29.53,10,5,0,24,7,38,0.00,7,Fog-Rain-Snow,267